WetterOnline ( https://www.wetteronline.ch )

Wetter aktuell Trostberg

Aktuelles Wetter: Chieming (553m)

6-stündlich | Neueste Meldungen
Ortszeit Temperatur Wetter
Do, 01.12. 13:00 2.2° C bedeckt
Do, 01.12. 7:00 0.5° C bedeckt
Do, 01.12. 1:00 0.1° C bewölkt
Mi, 30.11. 19:00 1.3° C bedeckt
Mi, 30.11. 13:00 2.2° C bedeckt
Mi, 30.11. 7:00 1.4° C Sprühregen
Mi, 30.11. 1:00 1.8° C bedeckt
Di, 29.11. 19:00 2.9° C bedeckt
Ortszeit Temperatur Wetter
Do, 01.12. 16:30 2.0° C bedeckt
Do, 01.12. 16:20 2.0° C bedeckt
Do, 01.12. 16:10 2.0° C bedeckt
Do, 01.12. 16:00 2.0° C bedeckt
Do, 01.12. 15:50 2.0° C bedeckt
Do, 01.12. 15:40 2.0° C bedeckt
Do, 01.12. 15:30 2.1° C bedeckt
Do, 01.12. 15:00 2.2° C bedeckt
Do, 01.12. 14:30 2.2° C bedeckt
Do, 01.12. 14:00 2.2° C bedeckt
Do, 01.12. 13:30 2.2° C bedeckt
Ortszeit Relative Feuchte Sichtweite
Do, 01.12. 13:00 87% 9 km
Do, 01.12. 7:00 95% 4.9 km
Do, 01.12. 1:00 94% 5.0 km
Mi, 30.11. 19:00 92% 7 km
Mi, 30.11. 13:00 94% 6 km
Mi, 30.11. 7:00 95% 4.0 km
Mi, 30.11. 1:00 97% 3.4 km
Di, 29.11. 19:00 95% 7 km
Ortszeit Relative Feuchte Sichtweite
Do, 01.12. 16:30 90% 8 km
Do, 01.12. 16:20 90% -
Do, 01.12. 16:10 90% -
Do, 01.12. 16:00 88% 9 km
Do, 01.12. 15:50 88% -
Do, 01.12. 15:40 89% -
Do, 01.12. 15:30 88% 8 km
Do, 01.12. 15:00 87% 9 km
Do, 01.12. 14:30 87% 9 km
Do, 01.12. 14:00 86% 9 km
Do, 01.12. 13:30 86% 9 km
Ortszeit Niederschlagsmenge Niederschlagsart
Do, 01.12. 13:00 0.0 l/m2 in 6 Std. -
Do, 01.12. 7:00 0.1 l/m2 in 12 Std. Schnee
Do, 01.12. 1:00 0.0 l/m2 in 6 Std. -
Mi, 30.11. 19:00 0.1 l/m2 in 12 Std. -
Mi, 30.11. 13:00 0.1 l/m2 in 6 Std. Sprühregen
Mi, 30.11. 7:00 0.1 l/m2 in 12 Std. Sprühregen
Mi, 30.11. 1:00 0.0 l/m2 in 6 Std. -
Di, 29.11. 19:00 1 l/m2 in 12 Std. Regen
Ortszeit Niederschlagsmenge Niederschlagsart
Do, 01.12. 16:30 0.0 l/m2 in 1 Std. -
Do, 01.12. 16:20 keine Meldung -
Do, 01.12. 16:10 keine Meldung -
Do, 01.12. 16:00 0.0 l/m2 in 1 Std. -
Do, 01.12. 15:50 keine Meldung -
Do, 01.12. 15:40 keine Meldung -
Do, 01.12. 15:30 0.0 l/m2 in 1 Std. -
Do, 01.12. 15:00 0.0 l/m2 in 1 Std. -
Do, 01.12. 14:30 0.0 l/m2 in 1 Std. -
Do, 01.12. 14:00 0.0 l/m2 in 1 Std. -
Do, 01.12. 13:30 0.0 l/m2 in 1 Std. -
Ortszeit Stärke Spitze Richtung
km/h Bft. km/h Grad Sektor
Do, 01.12. 13:00 6 1 9 40° NO
Do, 01.12. 7:00 4 1 11 80° O
Do, 01.12. 1:00 7 2 14 50° NO
Mi, 30.11. 19:00 11 2 22 50° NO
Mi, 30.11. 13:00 13 3 19 50° NO
Mi, 30.11. 7:00 6 1 15 60° NO
Mi, 30.11. 1:00 14 3 18 70° O
Di, 29.11. 19:00 11 2 18 50° NO
Ortszeit Stärke Spitze Richtung
km/h Bft. km/h Grad Sektor
Do, 01.12. 16:30 4 1 7 70° O
Do, 01.12. 16:20 4 1 - 70° O
Do, 01.12. 16:10 4 1 - 60° NO
Do, 01.12. 16:00 6 1 11 30° NO
Do, 01.12. 15:50 6 1 - 30° NO
Do, 01.12. 15:40 7 2 - 40° NO
Do, 01.12. 15:30 7 2 11 30° NO
Do, 01.12. 15:00 7 2 11 40° NO
Do, 01.12. 14:30 7 2 11 30° NO
Do, 01.12. 14:00 7 2 14 30° NO
Do, 01.12. 13:30 7 2 11 20° N
Ortszeit Untergrenze Bedeckung Gattung
total tief tief mittel hoch
Do, 01.12. 13:00 270 m 8/8 8/8 - - -
Do, 01.12. 7:00 150 m 8/8 8/8 - - -
Do, 01.12. 1:00 120 m 8/8 7/8 - - -
Mi, 30.11. 19:00 150 m 8/8 8/8 - - -
Mi, 30.11. 13:00 150 m 8/8 8/8 - - -
Mi, 30.11. 7:00 120 m 8/8 8/8 - - -
Mi, 30.11. 1:00 90 m 8/8 8/8 - - -
Di, 29.11. 19:00 120 m 8/8 8/8 - - -
Ortszeit Bedeckungsgrad in Achtel und Wolkenuntergrenze
Do, 01.12. 16:30 2(240m) 8(360m)
Do, 01.12. 16:20 2(240m) 8(360m)
Do, 01.12. 16:10 8
Do, 01.12. 16:00 8(360m)
Do, 01.12. 15:50 8(360m)
Do, 01.12. 15:40 8
Do, 01.12. 15:30 8(390m)
Do, 01.12. 15:00 8(300m)
Do, 01.12. 14:30 8(360m)
Do, 01.12. 14:00 2(270m) 8(360m)
Do, 01.12. 13:30 6(270m) 8(420m)
Ortszeit Luftdruck NN (hPa) Tendenz (hPa in 3 Std.)
Do, 01.12. 13:00 1023 - 0,7
Do, 01.12. 7:00 1023 0,0
Do, 01.12. 1:00 1024 - 0,2
Mi, 30.11. 19:00 1023 + 0,7
Mi, 30.11. 13:00 1022 - 0,4
Mi, 30.11. 7:00 1022 + 0,7
Mi, 30.11. 1:00 1021 0,0
Di, 29.11. 19:00 1020 + 0,9
Ortszeit Luftdruck NN (hPa) Tendenz (hPa in 3 Std.)
Do, 01.12. 16:30 1023 + 0,1
Do, 01.12. 16:20 1023 keine Meldung
Do, 01.12. 16:10 1023 keine Meldung
Do, 01.12. 16:00 1022 - 0,1
Do, 01.12. 15:50 1022 keine Meldung
Do, 01.12. 15:40 1022 keine Meldung
Do, 01.12. 15:30 1022 - 0,4
Do, 01.12. 15:00 1022 - 0,6
Do, 01.12. 14:30 1022 - 0,6
Do, 01.12. 14:00 1022 - 1,1
Do, 01.12. 13:30 1022 - 1,0
Ortszeit Schneehöhe (cm)
Do, 01.12. 13:00 0
Do, 01.12. 7:00 0
Do, 01.12. 1:00 0
Mi, 30.11. 19:00 0
Mi, 30.11. 13:00 0
Mi, 30.11. 7:00 0
Mi, 30.11. 1:00 0
Di, 29.11. 19:00 0
Ortszeit Schneehöhe (cm)
Do, 01.12. 16:30 0
Do, 01.12. 16:20 0
Do, 01.12. 16:10 0
Do, 01.12. 16:00 0
Do, 01.12. 15:50 0
Do, 01.12. 15:40 0
Do, 01.12. 15:30 0
Do, 01.12. 15:00 0
Do, 01.12. 14:30 0
Do, 01.12. 14:00 0
Do, 01.12. 13:30 0
Link zu dieser Seite / Seite empfehlen

Das Wetter in ...